RH
5 6 6 6 7 7 7 7 6 6 6 6 6 6 6 7 8 9 11 16 17 19 22 23 23 22 22 22 23 31 47 68 77 93 95 97 100 97 96 97 100 97 92 89 84 72 65 60 57 50 40 30 23 18
6 7 6 6 7 8 6 7 7 7 7 7 6 7 8 9 10 13 16 17 20 24 25 25 23 23 22 23 33 48 64 76 86 89 94 97 99 91 97 94 91 96 85 80 69 57 59 55 44 34 25 20 18 15
6 6 6 6 7 6 6 7 8 8 8 8 8 8 10 12 16 16 17 24 27 27 26 27 26 24 30 39 48 57 65 77 84 100 100 94 98 98 99 91 80 68 65 60 55 60 51 39 30 26 21 18 16 13
6 6 7 6 6 6 6 6 8 9 10 10 9 11 14 16 16 22 27 28 27 27 27 29 33 47 56 57 60 65 71 78 94 99 92 94 94 89 83 74 67 63 63 59 59 52 39 29 24 22 18 15 12 12
6 6 5 6 6 6 7 7 8 9 10 12 13 13 13 18 26 28 28 28 29 30 32 37 52 57 63 76 83 84 91 97 94 88 86 90 85 83 71 69 64 59 59 59 49 35 26 25 21 19 17 14 14 15
5 5 6 6 6 6 7 7 9 11 12 12 11 15 23 27 28 29 32 32 33 36 46 63 59 62 77 86 91 96 95 93 86 83 83 83 80 73 66 61 57 54 56 50 32 27 25 20 18 18 16 16 18 17
5 5 5 5 6 6 7 8 9 10 11 13 18 24 27 28 31 34 35 37 41 51 60 65 76 81 86 91 92 91 86 84 80 74 70 71 70 66 60 50 45 46 42 34 30 24 20 20 20 19 19 19 20 18
5 5 6 6 6 7 8 8 10 14 17 21 21 23 29 33 34 34 35 39 42 58 68 75 79 79 82 86 85 92 84 79 71 68 66 60 54 46 44 39 31 29 30 29 22 19 20 21 20 19 22 22 21 19
6 6 6 7 7 7 8 12 17 18 18 22 28 31 33 34 36 37 41 48 64 71 65 70 80 83 88 83 83 80 73 67 63 54 44 41 39 34 28 24 25 24 22 20 20 19 20 21 20 21 22 23 22 20
6 6 7 7 8 9 13 17 18 19 23 30 32 35 35 36 36 36 45 56 64 71 80 79 77 79 75 72 70 63 58 52 42 39 37 32 27 22 21 18 16 17 19 18 18 17 17 19 19 21 22 22 22 21
6 7 8 9 10 13 15 17 18 24 30 34 38 38 37 39 39 42 56 61 64 67 65 69 72 72 69 66 61 51 45 37 33 27 28 23 19 16 14 12 13 15 14 14 15 16 17 18 20 21 21 21 21 20
7 8 8 10 12 16 18 21 25 29 32 34 36 36 39 42 44 50 57 60 56 58 66 65 63 64 61 54 46 38 31 29 26 22 18 14 13 11 11 11 11 11 12 13 13 14 16 17 19 21 20 20 20 19
7 8 9 12 16 17 20 22 25 28 30 32 38 41 43 46 42 41 46 52 53 55 58 58 56 53 48 38 31 28 25 22 20 16 14 13 11 10 10 10 10 11 11 12 13 14 16 16 17 19 20 22 22 27
7 8 10 15 18 20 20 21 28 34 38 43 45 48 46 44 42 42 46 49 51 52 52 52 49 44 35 29 26 24 24 20 18 16 14 11 10 10 10 10 11 11 12 12 12 13 14 16 17 16 19 27 34 32
8 9 11 16 18 18 18 26 36 38 44 46 46 48 46 46 45 45 41 41 43 47 48 45 39 33 28 26 26 26 21 18 16 14 12 11 10 9 9 9 9 10 10 10 11 11 13 14 16 15 17 28 30 45
8 10 13 17 18 18 23 32 37 38 42 44 43 45 44 44 44 42 43 42 41 40 38 36 34 30 28 29 30 24 20 16 14 12 11 10 9 9 9 10 10 10 11 10 11 12 14 15 16 18 20 31 35 39
8 9 13 16 17 20 26 32 36 41 42 46 47 48 45 44 45 47 47 46 41 40 41 39 36 34 31 28 24 21 18 15 13 12 11 10 10 9 9 10 10 11 12 12 13 15 16 17 20 20 21 34 54 64
7 9 12 14 18 20 26 31 35 39 41 44 49 50 51 49 47 48 48 45 44 42 41 41 36 32 27 26 24 20 17 15 13 12 11 10 10 11 11 11 12 13 14 13 14 16 19 21 24 38 52 66 78 87
7 9 11 13 16 19 24 31 36 38 41 46 49 50 48 48 48 46 45 44 46 48 46 41 33 26 26 26 22 18 16 15 13 13 12 12 13 13 14 16 17 18 20 19 22 24 32 42 56 69 79 80 83 88
8 9 10 12 15 17 23 29 34 38 42 45 49 50 49 49 48 46 48 51 51 48 44 39 27 24 26 23 20 19 17 15 15 15 15 14 15 17 19 20 22 22 24 34 44 51 60 67 75 78 82 86 87 86
8 10 11 12 14 16 20 27 32 38 41 43 48 49 49 51 49 48 46 49 46 44 38 31 24 24 27 23 20 19 17 16 16 17 17 16 20 23 23 26 28 29 49 56 65 66 70 80 82 85 86 84 85 88
8 9 12 16 18 17 18 22 24 26 32 36 40 43 43 44 42 42 45 43 40 35 31 27 26 24 25 21 21 19 17 16 17 18 18 20 26 28 32 35 36 59 62 68 73 79 85 84 85 86 86 86 88 89
8 9 10 12 15 18 19 19 21 22 26 28 28 32 33 33 33 34 35 35 32 28 26 22 24 22 24 21 20 19 18 16 18 19 19 25 28 32 40 43 65 72 76 80 81 85 84 85 87 88 87 87 88 89
8 8 9 11 12 14 12 14 15 17 18 19 18 20 22 23 22 24 26 27 27 24 22 20 22 21 22 20 20 19 18 17 20 20 21 26 28 40 45 59 71 75 79 82 86 90 88 88 88 87 87 88 88 85
8 8 9 9 10 10 11 12 12 13 13 14 16 16 18 19 20 22 23 23 21 20 21 19 19 20 20 19 19 19 18 18 22 21 23 26 32 43 56 71 76 78 79 83 87 93 93 91 90 87 86 85 84 79
7 8 8 8 10 10 11 11 11 11 12 13 15 16 18 18 17 17 17 18 18 18 18 17 17 19 17 17 18 18 18 19 23 22 22 25 34 48 68 76 80 81 82 86 89 90 91 91 86 82 82 82 77 72
7 8 8 10 10 10 10 11 11 11 11 12 13 13 13 14 15 15 16 16 16 15 15 15 16 16 15 16 16 17 18 18 23 25 23 29 38 55 71 76 79 83 92 91 90 91 92 90 86 81 77 72 68 68
6 6 6 7 8 9 10 10 10 10 11 12 12 12 13 13 14 13 12 13 13 13 14 14 14 14 14 15 15 16 18 18 21 24 25 31 41 58 68 72 76 81 86 89 89 88 88 88 84 78 71 66 66 65
6 6 6 6 6 6 7 8 8 9 10 10 10 11 11 11 11 11 11 11 12 12 12 12 12 13 13 14 14 15 18 17 19 23 26 33 41 58 69 75 78 80 84 87 87 86 84 81 77 73 69 67 66 66
6 6 6 7 7 7 6 6 7 7 7 8 8 9 9 10 10 11 11 12 12 13 13 13 12 12 13 14 14 16 17 17 18 23 30 34 41 54 65 70 72 75 78 79 79 78 76 74 73 69 67 67 66 63
8 8 7 7 6 6 6 6 7 7 8 8 8 8 9 9 10 10 10 11 12 13 13 13 13 14 14 15 16 17 19 17 18 22 30 36 44 52 59 64 67 69 70 69 68 68 68 68 67 67 65 65 64 61
8 8 8 8 7 7 7 7 7 7 7 7 8 8 8 8 8 8 9 11 13 13 13 12 12 13 14 15 15 17 19 20 19 23 28 34 42 51 57 60 62 63 63 64 64 63 62 62 60 60 59 58 56 53
8 8 9 9 8 8 8 9 9 9 9 9 8 8 7 7 7 8 10 11 12 12 11 11 11 12 13 13 14 17 19 21 22 23 25 29 35 44 54 58 58 58 59 58 57 57 57 56 55 53 54 53 49 46
Wind_Speed
32 32 32 29 28 29 29 31 31 30 29 29 29 31 33 35 38 38 39 39 40 38 36 36 36 35 33 32 30 30 30 30 29 30 32 28 32 35 33 34 36 38 40 43 45 44 42 40 40 38 36 36 35 35
29 28 28 27 29 30 30 31 32 31 31 30 29 31 34 36 35 37 41 39 36 36 37 36 34 32 32 30 30 31 30 29 30 31 32 34 36 37 37 37 39 40 43 45 42 38 37 35 34 32 33 32 32 31
26 27 28 30 32 32 30 33 33 32 31 30 31 33 35 36 39 40 37 38 38 36 33 31 32 31 28 27 29 30 30 31 33 33 35 35 36 38 40 40 41 41 40 38 33 32 34 32 30 31 32 31 29 27
28 28 30 31 30 30 32 32 33 34 33 32 32 35 38 41 38 39 41 39 36 33 32 31 30 28 27 27 28 29 30 31 31 34 37 37 38 38 39 40 39 39 38 32 30 31 31 29 29 29 29 25 25 22
29 31 31 30 31 32 34 34 35 36 35 36 39 42 41 37 42 42 38 35 33 31 30 30 29 28 28 29 29 30 30 32 33 34 36 39 40 41 39 38 36 34 31 30 30 29 29 28 26 25 25 23 21 19
31 29 30 32 33 35 35 36 37 38 40 41 40 38 41 43 41 37 35 33 32 31 30 30 29 30 29 29 30 31 32 32 31 32 34 36 36 36 36 34 31 29 29 30 30 28 28 25 23 24 24 22 18 19
29 30 32 33 34 36 37 38 39 38 35 36 40 44 45 42 40 40 39 37 35 33 31 29 30 30 29 30 30 31 31 31 32 32 33 34 34 33 33 30 28 28 28 30 30 28 26 24 23 23 23 21 19 20
29 31 32 34 35 37 38 37 36 37 40 43 44 43 42 41 39 36 35 34 33 32 33 33 32 30 29 28 28 29 30 30 31 32 33 32 31 30 30 29 28 28 29 29 30 27 26 25 24 23 23 22 21 23
31 33 33 34 35 37 37 37 40 43 43 42 42 42 41 40 38 36 34 33 33 33 31 29 29 29 29 29 29 29 29 30 30 30 30 29 30 27 30 30 30 29 29 29 30 28 26 25 25 24 23 23 23 24
32 33 34 35 36 37 40 42 42 42 42 44 44 42 39 36 35 32 32 34 33 30 29 29 28 28 28 27 27 28 28 29 29 29 27 27 28 30 31 29 27 28 29 30 29 28 26 26 25 24 24 23 24 24
32 33 35 36 38 41 42 42 42 44 45 44 43 40 38 36 33 32 33 32 32 30 28 26 26 27 26 27 27 28 27 26 25 23 26 28 30 28 29 28 26 28 28 27 27 25 25 24 23 24 23 23 24 25
33 35 37 38 40 42 43 43 44 46 45 43 41 39 36 33 31 31 32 31 30 27 27 27 26 25 25 26 26 25 23 21 22 23 25 27 26 26 26 25 25 25 23 23 22 22 22 22 22 23 23 22 23 22
33 35 39 41 42 42 43 44 44 44 43 40 37 34 33 32 32 32 30 28 28 27 26 25 24 23 23 23 21 20 18 18 21 23 24 25 23 21 21 20 19 19 19 19 18 18 19 20 21 22 22 21 20 19
34 34 38 41 43 43 44 43 43 41 40 38 36 35 34 31 30 29 29 27 27 25 23 22 22 22 21 20 17 16 20 21 22 23 22 19 17 17 17 18 18 19 19 20 20 21 22 22 22 22 22 21 20 18
33 37 39 40 42 42 41 41 42 42 41 39 38 36 34 32 30 28 27 25 24 22 22 21 21 20 18 16 17 20 21 21 20 19 17 16 15 15 15 16 17 17 18 19 19 20 21 22 23 21 23 23 20 19
32 34 38 40 41 40 40 42 43 43 42 39 37 35 33 30 27 26 25 24 23 22 21 21 20 18 17 19 20 21 20 19 16 16 14 12 13 14 15 16 16 17 17 18 17 18 18 19 18 19 19 22 20 17
32 34 36 38 38 40 42 43 43 41 39 37 34 32 30 29 28 26 25 25 23 22 21 21 20 21 19 19 19 19 18 15 14 13 11 12 13 14 15 15 16 17 19 19 19 19 20 19 20 20 18 18 16 13
30 33 35 36 38 38 40 41 42 41 39 37 36 34 33 32 30 29 28 26 24 23 21 22 22 23 19 18 18 17 16 14 14 11 10 12 13 14 15 15 16 17 18 19 19 19 20 21 20 18 15 12 11 10
27 30 33 35 36 38 38 40 40 40 39 38 36 35 33 32 31 29 27 25 24 23 24 25 24 21 17 18 17 16 15 15 14 11 11 14 14 15 16 16 18 19 20 20 20 20 19 17 16 14 13 11 9 9
27 27 30 32 34 35 36 37 38 39 39 37 36 35 34 33 31 30 28 27 26 26 26 27 24 18 17 18 16 16 15 16 14 13 15 16 17 17 18 19 19 20 19 19 19 18 17 16 14 12 11 11 12 12
28 28 27 30 32 33 33 36 37 37 37 37 37 37 35 34 33 32 30 30 29 29 28 27 22 16 17 17 16 16 16 17 15 16 18 19 19 19 20 19 20 20 21 22 19 17 15 13 13 13 13 13 14 15
27 28 29 29 30 32 33 35 37 38 38 39 38 38 37 36 35 34 33 31 31 30 29 24 20 18 19 18 17 18 18 19 19 19 21 23 22 23 24 22 22 21 21 19 17 16 16 16 15 14 15 16 16 17
25 27 28 30 31 32 33 34 35 36 37 37 37 38 37 36 35 34 32 31 31 30 28 23 22 21 20 20 20 19 22 22 21 22 25 26 26 27 26 25 24 22 21 19 18 17 17 17 16 17 18 19 19 22
22 23 25 26 27 29 29 30 31 32 33 34 35 35 34 33 32 31 30 30 30 28 26 24 23 21 21 22 23 21 25 24 24 25 28 29 29 30 29 27 25 24 23 21 20 20 20 19 20 21 22 23 26 28
19 20 20 22 23 25 25 26 26 28 29 30 29 29 29 29 29 29 29 29 27 26 27 25 23 22 24 23 24 23 26 26 26 28 30 31 31 30 30 29 27 26 24 22 22 23 24 24 25 26 27 29 31 33
14 15 18 19 20 21 22 23 24 24 25 25 25 26 27 27 27 27 27 27 26 26 26 24 23 24 26 24 26 25 28 27 28 29 32 33 32 32 32 31 30 27 25 24 25 26 27 28 29 31 32 34 35 37
11 11 15 15 16 18 20 21 21 22 23 23 23 25 25 24 25 26 25 26 26 25 24 23 24 27 26 25 27 27 29 29 30 31 33 33 33 34 34 33 32 29 28 28 29 30 31 32 34 35 37 38 39 41
10 12 15 16 16 16 17 18 19 19 19 21 22 22 23 23 25 26 25 24 23 23 23 25 26 26 25 26 27 28 30 31 31 32 33 33 34 35 35 35 33 32 31 32 33 33 35 36 38 39 40 40 42 43
9 9 10 12 13 15 16 17 17 18 20 20 20 21 21 23 23 23 22 22 22 23 24 26 25 25 26 27 29 29 30 32 32 31 32 34 36 37 36 36 36 35 35 36 36 37 38 38 39 41 41 42 44 45
10 13 14 14 13 14 15 16 18 18 19 19 19 21 21 21 21 21 21 21 22 23 24 24 25 25 26 28 29 28 30 32 32 33 33 34 36 37 37 37 37 37 37 38 39 40 40 41 42 43 43 44 45 45
8 10 12 13 15 18 19 19 19 19 19 20 20 20 20 21 21 21 21 22 23 24 24 24 24 24 26 27 27 27 30 31 32 33 34 34 36 37 38 38 38 39 39 40 40 40 40 42 44 45 46 47 47 48
9 11 12 13 14 14 14 17 19 21 22 23 24 25 25 25 24 24 23 23 24 24 24 24 25 24 25 26 27 28 29 31 31 33 35 36 36 38 39 40 41 41 41 41 42 42 43 44 46 47 48 48 49 49
11 12 14 15 15 16 16 17 18 19 20 21 21 22 22 22 22 22 24 25 26 26 26 26 26 26 26 26 27 28 29 31 33 35 35 35 35 37 39 40 41 42 43 44 44 45 45 46 47 47 48 49 49 49
Wind_Direction
221 221 224 221 220 218 214 213 214 210 208 209 207 204 201 200 200 200 198 197 199 200 201 206 212 217 222 224 221 219 216 217 223 224 228 228 230 235 240 243 247 251 254 258 263 269 274 275 276 272 272 269 270 271
212 210 212 210 211 211 208 205 208 204 203 201 198 194 192 193 192 189 191 191 189 192 199 205 212 216 218 214 213 212 214 219 223 226 227 232 238 241 245 250 254 256 260 264 269 275 276 272 271 272 272 274 272 272
209 208 206 205 205 207 204 202 203 202 200 196 192 188 186 185 186 187 185 184 191 195 198 205 208 211 211 212 214 216 220 223 224 225 229 236 239 243 249 253 257 261 266 271 276 274 274 274 274 274 272 270 270 271
199 198 198 199 200 198 198 196 194 195 194 190 185 182 180 184 181 178 182 187 191 195 198 200 201 200 204 211 214 216 220 223 226 229 236 240 243 248 254 259 265 269 271 273 273 273 271 273 273 272 271 272 271 267
191 193 193 192 192 190 189 187 186 187 185 181 181 182 182 175 177 182 185 186 191 194 197 198 198 203 206 208 211 216 218 223 230 234 239 244 249 254 259 264 266 268 272 274 269 267 271 273 271 273 275 277 273 261
191 189 188 188 187 186 185 182 182 183 183 183 181 175 173 177 181 181 183 188 192 194 193 195 201 204 206 209 213 217 223 228 233 238 243 248 253 257 260 263 265 268 270 268 267 268 269 268 271 272 273 271 263 259
185 184 186 185 184 182 181 181 182 183 181 176 172 173 177 179 179 182 187 189 191 191 195 198 201 205 207 212 217 222 229 235 240 243 247 251 254 257 261 264 264 262 261 264 266 267 267 267 269 268 268 263 254 255
179 179 180 181 180 179 180 180 175 173 173 175 176 176 176 178 183 187 190 192 193 193 196 200 204 209 214 219 224 230 237 242 245 248 252 255 258 260 263 258 257 257 258 261 264 265 267 269 266 261 257 255 249 251
175 176 176 176 177 177 175 171 173 175 175 174 174 176 178 181 184 187 191 191 193 196 198 202 207 212 217 223 229 236 242 247 251 255 258 260 260 256 255 255 255 254 258 260 263 264 264 263 259 254 248 245 244 248
175 176 174 174 173 172 170 172 175 174 171 173 176 178 181 184 186 189 192 194 197 199 202 206 211 218 225 230 237 244 249 253 257 260 262 260 260 258 258 257 257 258 259 259 260 260 259 255 251 244 240 238 245 246
174 174 172 171 171 171 173 173 173 172 174 175 176 180 182 184 186 190 194 197 201 204 207 212 218 225 232 238 244 249 254 258 262 261 264 261 259 262 261 259 255 254 253 253 253 251 249 246 240 237 236 237 238 242
171 171 169 168 171 173 173 173 173 174 176 177 179 181 182 184 187 192 197 202 205 207 211 218 224 231 237 243 248 253 260 265 267 265 266 266 267 264 260 256 251 248 245 242 241 238 236 234 229 229 233 236 238 240
171 170 168 168 172 174 175 175 175 177 178 178 179 181 183 188 193 197 201 203 205 210 215 221 228 235 240 247 255 263 272 278 277 278 276 272 267 259 251 245 240 237 232 227 222 217 216 216 219 223 230 229 235 229
167 167 168 172 175 176 177 175 174 176 178 179 181 184 190 193 195 199 202 205 209 213 219 225 232 240 248 256 268 283 285 283 282 280 274 266 257 248 238 229 223 221 217 214 212 212 213 215 216 219 217 214 218 216
167 169 169 173 177 179 177 173 176 179 181 183 186 189 193 195 198 201 204 207 210 215 222 230 239 248 260 274 287 285 282 281 277 268 259 252 247 241 232 226 222 220 219 218 217 216 216 216 218 219 216 212 203 203
167 168 173 176 179 179 177 178 182 184 185 187 190 193 195 199 203 206 209 211 216 222 229 238 248 259 272 281 280 278 278 275 266 256 249 243 238 230 222 214 213 212 212 215 216 212 208 209 212 214 205 198 199 202
169 170 173 179 180 180 180 183 186 188 189 191 195 198 201 204 207 210 214 217 222 228 237 246 258 268 276 278 274 274 272 264 252 247 239 234 225 218 210 207 206 205 206 206 204 199 195 196 197 194 192 182 187 199
172 173 177 179 181 183 184 187 189 191 193 194 197 201 204 208 211 215 219 224 230 238 247 255 263 268 273 271 271 270 262 249 241 229 223 219 206 203 200 198 196 194 196 193 190 186 180 181 181 177 177 184 198 216
172 176 179 181 182 184 186 190 192 195 198 200 203 207 210 212 216 220 224 229 237 245 252 258 262 265 269 266 265 258 246 239 228 219 216 200 195 193 192 190 187 185 184 181 178 177 175 174 174 177 188 203 215 231
174 178 181 184 186 187 188 191 195 198 201 205 208 211 213 216 220 224 229 235 242 247 252 257 261 264 263 259 256 246 237 232 218 217 210 204 199 194 190 187 184 179 178 177 174 176 178 181 188 200 209 221 236 257
175 176 181 184 185 188 190 194 197 201 204 207 210 213 217 220 224 229 234 238 244 248 252 257 261 258 256 255 248 236 235 224 216 215 215 205 195 192 192 188 184 184 182 183 184 186 192 197 208 216 232 250 266 279
179 179 179 184 190 191 195 198 201 204 208 210 213 216 220 225 229 233 236 240 244 248 252 257 257 250 251 247 239 231 230 220 214 214 212 203 196 197 196 190 190 192 191 190 196 202 204 213 224 240 257 270 278 285
183 185 186 188 193 198 202 205 207 211 214 216 218 222 225 229 232 235 238 242 246 250 254 252 250 246 244 240 231 228 226 219 214 214 210 204 199 199 198 194 196 198 197 203 211 216 221 231 245 258 268 274 282 291
183 189 192 195 198 202 206 211 214 216 221 223 225 227 230 233 236 238 240 243 246 248 249 246 243 243 238 232 226 225 224 219 215 218 212 203 201 201 202 202 204 204 209 215 223 231 238 247 257 265 273 279 287 294
181 186 192 196 198 203 207 213 215 218 222 225 228 230 233 234 236 238 239 242 242 241 243 242 240 238 234 228 225 223 225 219 217 220 214 207 205 205 206 209 211 214 218 225 232 240 248 256 264 270 275 281 288 294
185 191 194 196 199 203 207 211 215 217 220 223 225 227 228 230 232 234 236 238 239 238 240 240 236 230 229 223 223 223 226 219 218 223 219 214 211 210 211 215 219 223 229 235 242 248 255 262 269 275 279 285 291 296
174 182 187 195 201 207 210 212 215 217 219 220 223 226 228 230 231 233 234 235 237 238 237 233 228 227 227 222 225 224 227 222 218 222 223 220 216 215 218 221 226 230 235 242 250 256 261 267 273 279 285 289 294 299
198 196 193 196 198 200 204 208 213 216 218 221 223 224 226 227 229 231 232 234 234 233 230 227 227 227 225 224 226 224 228 226 221 223 225 225 221 221 224 227 232 236 241 247 255 261 267 273 279 284 289 293 297 300
187 194 205 209 208 205 204 205 208 211 214 217 219 222 225 228 230 232 232 230 228 227 226 226 226 225 226 227 229 227 230 231 225 224 227 227 227 227 229 233 237 242 248 253 260 266 272 277 282 287 292 296 299 303
205 198 195 196 204 211 214 214 215 216 218 218 220 221 223 225 227 228 226 224 223 223 225 226 226 228 230 231 231 231 236 236 229 225 228 232 232 234 237 240 244 249 254 259 264 269 274 279 284 290 294 298 303 306
213 215 219 223 217 211 206 206 209 209 209 212 217 220 222 223 222 221 220 218 218 221 224 225 227 231 235 235 236 240 244 242 237 233 233 236 238 240 243 247 251 255 259 264 269 274 279 283 287 291 295 299 303 305
227 224 224 231 234 235 235 230 225 221 218 215 215 217 219 219 219 217 216 216 218 222 225 226 228 230 235 236 236 239 242 244 244 241 239 242 245 247 250 253 256 261 265 270 274 278 281 285 289 293 297 301 304 304
236 236 239 241 240 234 229 228 230 235 239 243 244 244 240 233 227 221 221 221 223 226 228 229 233 235 237 237 237 238 242 244 246 246 245 248 251 253 255 257 261 265 269 273 276 280 284 287 290 294 297 300 301 302